User: anonymous
Location: NJAA Observatory
(40.6819°N, 74.8979°W)
Time: 15:54:42
(UTC-04:00)
Language:

S-56A Canister/Altair - Orbit

View from above orbital plane
View from above orbital plane
View from above satellite
View from above satellite

Ground track
Ground track

The orbit data is extracted from the following two-line orbital elements,

1 00082U 61004B   14272.41814673 -.00000067  00000-0 -36791-5 0  7265
2 00082 038.8571 006.5926 1176412 089.8177 283.6961 12.25642463551566
Epoch (UTC): 29 September 2014 10:02:07
Eccentricity: 0.1176412
inclination: 38.8571°
perigee height: 633 km
apogee height: 2503 km
right ascension of ascending node: 6.5926°
argument of perigee: 89.8177°
revolutions per day: 12.25642463
mean anomaly at epoch: 283.6961°
orbit number at epoch: 55156

The dashed part of the orbit path shows where the satellite is in the earth's shadow,  

DLR